Location: Unnamed
(51.5169°N, 0.1311°W)
Time: 20:26:52
(UTC+01:00)

Tiros 1 - Pass Details

Date: 15 August 2024
Orbit: 623 x 655 km, 48.4° (Epoch: 16 September)

Event Time Altitude Azimuth Distance (km) Brightness Sun altitude
Rises 09:47:11 0° 279° (W) 2,982 10.1 35.5°
Reaches altitude 10° 09:49:47 10° 267° (W) 2,067 9.4 35.8°
Maximum altitude 09:53:49 28° 210° (SSW) 1,234 8.8 36.4°
Drops below altitude 10° 09:57:49 10° 152° (SSE) 2,049 10.6 36.9°
Sets 10:00:24 0° 141° (SE) 2,952 11.4 37.3°
